This is the latest recevied weather packets stored in our database for station/object IZ1UQG-N2. If no packets are shown the sender has not sent any weather packets the latest 1 day(s).
| Time | Temp. | Humidity | Pressure | Rain* | Wind** | Luminosity | Snow |
|---|---|---|---|---|---|---|---|
| 1778050892 | 11.67° C | 93% | 1006.9 hPa | 0 mm | - | 12 W/m² | - |
| 1778050832 | 11.67° C | 93% | 1006.7 hPa | 0 mm | - | 12 W/m² | - |
| 1778050772 | 11.67° C | 93% | 1006.8 hPa | 0 mm | - | 14 W/m² | - |
| 1778050721 | 11.67° C | 93% | 1006.8 hPa | 0 mm | - | 16 W/m² | - |
| 1778050713 | 11.67° C | 93% | 1006.8 hPa | 0 mm | - | 16 W/m² | - |
| 1778050652 | 11.67° C | 93% | 1006.7 hPa | 0 mm | - | 16 W/m² | - |
| 1778050592 | 11.67° C | 93% | 1006.7 hPa | 0 mm | - | 16 W/m² | - |
| 1778050472 | 11.67° C | 93% | 1006.7 hPa | 0 mm | - | 12 W/m² | - |
| 1778050361 | 11.67° C | 93% | 1006.9 hPa | 0 mm | - | 14 W/m² | - |
| 1778050353 | 11.67° C | 93% | 1006.9 hPa | 0 mm | - | 14 W/m² | - |
| 1778050233 | 11.67° C | 93% | 1006.9 hPa | 0 mm | - | 12 W/m² | - |
| 1778050180 | 11.67° C | 93% | 1006.8 hPa | 0 mm | - | 12 W/m² | - |
| 1778050172 | 11.67° C | 93% | 1006.8 hPa | 0 mm | - | 12 W/m² | - |
| 1778050001 | 11.67° C | 93% | 1006.8 hPa | 0 mm | - | 11 W/m² | - |
| 1778049993 | 11.67° C | 93% | 1006.8 hPa | 0 mm | - | 11 W/m² | - |
| 1778049933 | 11.67° C | 93% | 1006.8 hPa | 0 mm | - | 12 W/m² | - |
| 1778049641 | 11.67° C | 93% | 1006.8 hPa | 0 mm | - | 19 W/m² | - |
| 1778049633 | 11.67° C | 93% | 1006.8 hPa | 0 mm | - | 19 W/m² | - |
| 1778049573 | 11.67° C | 93% | 1006.8 hPa | 0 mm | - | 19 W/m² | - |
| 1778049512 | 11.67° C | 93% | 1006.8 hPa | 0 mm | - | 19 W/m² | - |
| 1778049391 | 11.67° C | 93% | 1006.8 hPa | 0 mm | - | 19 W/m² | - |
| 1778049331 | 11.67° C | 93% | 1006.8 hPa | 0 mm | - | 23 W/m² | - |
| 1778049093 | 11.67° C | 93% | 1006.8 hPa | 5.33 mm | - | 11 W/m² | - |
| 1778049032 | 11.67° C | 93% | 1006.8 hPa | 5.59 mm | - | 7 W/m² | - |
| 1778048913 | 11.67° C | 93% | 1006.6 hPa | 5.59 mm | - | 5 W/m² | - |
* Rain latest hour (hover to see other rain measurements)
** Current wind speed in m/s (hover to see current wind gust speed)